This is the latest recevied weather packets stored in our database for station/object DW2488. If no packets are shown the sender has not sent any weather packets the latest 10 day(s).
| Time | Temp. | Humidity | Pressure | Rain* | Wind** | Luminosity | Snow |
|---|---|---|---|---|---|---|---|
| 1777890450 | 15° C | 92% | 1015.8 hPa | 0 mm | - | 0 W/m² | - |
| 1777889536 | 15° C | 92% | 1015.5 hPa | 0 mm | - | 0 W/m² | - |
| 1777888639 | 15° C | 91% | 1015.2 hPa | 0 mm | - | 0 W/m² | - |
| 1777887725 | 15° C | 91% | 1015.1 hPa | 0 mm | - | 0 W/m² | - |
| 1777886810 | 15.56° C | 91% | 1015 hPa | 0 mm | - | 0 W/m² | - |
| 1777885908 | 15.56° C | 91% | 1015 hPa | 0 mm | - | 0 W/m² | - |
| 1777884980 | 15.56° C | 91% | 1015.2 hPa | 0 mm | - | 0 W/m² | - |
| 1777884078 | 15.56° C | 91% | 1015.2 hPa | 0 mm | - | 0 W/m² | - |
| 1777883173 | 15.56° C | 91% | 1015.2 hPa | 0 mm | - | 0 W/m² | - |
| 1777882272 | 16.11° C | 91% | 1015 hPa | 0 mm | - | 0 W/m² | - |
| 1777881369 | 16.11° C | 90% | 1014.8 hPa | 0 mm | - | 0 W/m² | - |
| 1777880452 | 16.11° C | 90% | 1014.9 hPa | 0 mm | - | 0 W/m² | - |
| 1777879534 | 16.67° C | 90% | 1014.6 hPa | 0 mm | - | 0 W/m² | - |
| 1777878634 | 17.22° C | 90% | 1014.9 hPa | 0 mm | - | 5 W/m² | - |
| 1777877737 | 17.22° C | 90% | 1014.5 hPa | 0 mm | - | 21 W/m² | - |
| 1777876812 | 17.22° C | 90% | 1014.7 hPa | 0 mm | - | 32 W/m² | - |
| 1777875911 | 17.78° C | 90% | 1014.5 hPa | 0 mm | - | 47 W/m² | - |
| 1777874988 | 17.78° C | 91% | 1014.6 hPa | 0 mm | - | 90 W/m² | - |
| 1777874067 | 17.78° C | 91% | 1014.5 hPa | 0 mm | - | 69 W/m² | - |
| 1777873152 | 17.78° C | 91% | 1014.5 hPa | 0 mm | - | 97 W/m² | - |
| 1777872240 | 17.78° C | 92% | 1014.8 hPa | 0 mm | - | 93 W/m² | - |
| 1777871339 | 17.78° C | 91% | 1014.8 hPa | 0 mm | - | 121 W/m² | - |
| 1777870436 | 17.78° C | 92% | 1014.8 hPa | 0 mm | - | 146 W/m² | - |
| 1777869536 | 17.78° C | 92% | 1014.7 hPa | 0 mm | - | 176 W/m² | - |
| 1777868632 | 17.78° C | 92% | 1014.6 hPa | 0 mm | - | 153 W/m² | - |
* Rain latest hour (hover to see other rain measurements)
** Current wind speed in m/s (hover to see current wind gust speed)